This is the latest recevied weather packets stored in our database for station/object K4CRS-13. If no packets are shown the sender has not sent any weather packets the latest 10 day(s).
| Time | Temp. | Humidity | Pressure | Rain* | Wind** | Luminosity | Snow |
|---|---|---|---|---|---|---|---|
| 1777982404 | 13.89° C | 90% | 1047.9 hPa | 0 mm | - | 64 W/m² | - |
| 1777982100 | 13.33° C | 92% | 1047.6 hPa | 0 mm | - | 48 W/m² | - |
| 1777981799 | 12.78° C | 93% | 1047.7 hPa | 0 mm | - | 42 W/m² | - |
| 1777981495 | 12.78° C | 94% | 1047.8 hPa | 0 mm | - | 38 W/m² | - |
| 1777981192 | 11.67° C | 94% | 1047.6 hPa | 0 mm | - | 29 W/m² | - |
| 1777980888 | 11.67° C | 94% | 1047.6 hPa | 0 mm | - | 23 W/m² | - |
| 1777980583 | 11.67° C | 93% | 1047.4 hPa | 0 mm | - | 20 W/m² | - |
| 1777980281 | 11.67° C | 93% | 1047.4 hPa | 0 mm | - | 16 W/m² | - |
| 1777979978 | 11.67° C | 93% | 1047.2 hPa | 0 mm | - | 12 W/m² | - |
| 1777979672 | 11.67° C | 93% | 1047.2 hPa | 0 mm | - | 8 W/m² | - |
| 1777979369 | 11.67° C | 93% | 1047 hPa | 0 mm | - | 6 W/m² | - |
| 1777979066 | 11.67° C | 93% | 1047.1 hPa | 0 mm | - | 4 W/m² | - |
| 1777978762 | 11.67° C | 93% | 1046.8 hPa | 0 mm | - | 2 W/m² | - |
| 1777978459 | 11.67° C | 92% | 1046.5 hPa | 0 mm | - | 1 W/m² | - |
| 1777978155 | 11.67° C | 92% | 1046.4 hPa | 0 mm | - | 1 W/m² | - |
| 1777977852 | 11.67° C | 92% | 1046.4 hPa | 0 mm | - | 0 W/m² | - |
| 1777977548 | 11.67° C | 91% | 1046.5 hPa | 0 mm | - | 0 W/m² | - |
| 1777977247 | 11.67° C | 91% | 1046.7 hPa | 0 mm | - | 0 W/m² | - |
| 1777976943 | 12.22° C | 91% | 1046.8 hPa | 0 mm | - | 0 W/m² | - |
| 1777976641 | 12.22° C | 90% | 1046.5 hPa | 0 mm | - | 0 W/m² | - |
| 1777976336 | 12.22° C | 91% | 1046.6 hPa | 0 mm | - | 0 W/m² | - |
| 1777976031 | 12.22° C | 91% | 1046.7 hPa | 0 mm | - | 0 W/m² | - |
| 1777975727 | 12.22° C | 91% | 1046.9 hPa | 0 mm | - | 0 W/m² | - |
| 1777975424 | 12.22° C | 91% | 1046.8 hPa | 0 mm | - | 0 W/m² | - |
| 1777975120 | 12.22° C | 92% | 1046.6 hPa | 0 mm | - | 0 W/m² | - |
* Rain latest hour (hover to see other rain measurements)
** Current wind speed in m/s (hover to see current wind gust speed)